Location: Cheching
(60.0667°N, 164.2167°W)
Time: 02:22:23
(UTC+00:00)

UNISAT 6 - Pass Details

Date: 23 January 2021
Orbit: 607 x 687 km, 97.7° (Epoch: 05 March)

Event Time Altitude Azimuth Distance (km) Brightness Sun altitude
Rises 16:06:07 0° 127° (SE) 2,883 ? -24.4°
Reaches altitude 10° 16:08:28 10° 116° (ESE) 1,990 ? -24.1°
Maximum altitude 16:12:12 29° 56° (ENE) 1,156 ? -23.7°
Drops below altitude 10° 16:16:01 10° 357° (N) 2,037 ? -23.2°
Enters shadow 16:17:21 - 350° (N) 2,529 ? -23.0°
